◎C/2003 K2の軌道と予報位置です



  観測は,まだ,放物線でも表現できます.下の軌道は,楕円軌道で改良した

ものです.4月のSWAN彗星の位置は,熊本の小林寿朗氏の要請で,宇都宮の鈴

木雅之氏が測定したもの(4月19日と20日は,捜索予報から逆算).この軌道

は,4月の観測位置を概略1゜以内に表現しています.彗星は,この間,40゜

ほど移動しているため,この彗星との同定は間違いないものです.なお,彗星

の軌道は,5D/Brorsen(q= 0.59 AU, e= 0.82, ω=19, Ω= 98, i=22)に

似ています.

 CCD 全光度は,5月28日に14.6等(豊中;江崎裕介),6月1日に15.4等(

久万;中村彰正),14.9等(上尾;門田健一),2日に15.5等(江崎)と報告

されています.



    C/2003 K2                                                             

T 2003 Apr. 7.79756 TT                                  Nakano

q   0.5482151            (2000.0)            P               Q

n   0.17662324     Peri.  345.33202     +0.18142744     -0.96760429

a   3.1460877      Node    93.98524     +0.91905620     +0.10331026

e   0.8257470      Incl.   10.13680     +0.34988539     +0.23036696

P   5.58 (+/-82.27 day)

From 187 observations 2003 May 26-June 3.

Residuals in seconds of arc (or two decimals in units of degrees)

2003/                     030527 734  2.3+  0.3+    030530 H72 (2.8-  0.7-) 

030405 249(0.89+ 0.64+)Y  030527 703  2.1+  0.3+    030530 H41  0.6+  2.1-  

030408 249(0.99+ 0.41+)Y  030527 333  1.2+  0.1-    030530 H41  1.1-  0.5-  

030412 249(0.53+ 0.56-)Y  030527 703 (2.3+  0.2-)   030530 H72  1.3+  0.2-  

030415 249(0.23+ 0.28+)Y  030527 333  0.5-  1.0-    030530 673  1.1-  0.2-  

030417 249(0.72+ 0.88+)Y  030527 333  1.4+  0.8+    030530 673  0.3-  0.5-  

030419 249(0.99+ 1.26+)Y  030527 670  1.2-  0.8+    030530 673  0.7-  0.2-  

030420 249(1.15+ 1.51+)Y  030527 333  1.6+  0.3+    030530 673  0.2+  0.4-  

030526 703 (3.8+  0.4+)   030527 333  0.4+  0.3-    030530 921  2.0+  1.9+  

030526 703 (3.7+  0.6+)   030527 333 (2.5+  0.7-)   030530 921 (0.8-  2.4+) 

030526 703  2.3+  0.0     030527 333  0.7+  0.3+    030530 673  0.1-  0.6-  

030526 703 (5.0+  2.0-)   030527 333 (0.1-  2.8-)   030530 673  0.8-  0.5-  

030526 938  0.9-  1.2-    030527 673  0.3-  0.1+    030530 673  0.5-  0.4-  

030526 938  1.5-  0.4+    030527 703  1.5-  1.0+    030530 673  0.9-  0.6-  

030526 938  0.8+  0.1-    030527 670  1.0-  0.9+    030530 587  1.7-  2.0+  

030526 938  1.2-  0.1+    030527 673  0.6-  0.2-    030530 587 (2.0+  3.4-) 

030526 938  0.0   0.7-    030527 673  0.2-  0.0     030530 587  1.3-  0.4-  

030526 938  1.1-  0.7+    030527 673  0.5-  0.3+    030530 232 (2.5+  1.6-) 

030526 938  0.9-  0.4-    030527 176  0.5+  0.3+    030530 232 (1.5-  2.7+) 

030526 938  0.6+  0.6+    030527 176  0.3+  0.2+    030530 J87  1.3-  1.9+  

030526 938  0.5-  0.4-    030527 176  0.1+  0.2+    030530 J87  0.2+  0.4-  

030526 938  1.4+  0.6-    030527 176  0.0   0.1+    030530 J87  0.9+  0.4-  

030526 938  0.4-  0.2-    030527 176  0.3-  0.0     030530 J87  0.1-  0.6-  

030526 938  1.2+  0.2+    030528 H41  0.8-  1.1+    030531 H72  0.0   0.5-  

030526 938  0.2-  0.6+    030528 H41  0.5-  0.0     030531 H72  1.8+  0.2+  

030526 938  0.2-  0.4+    030528 H41  0.3-  1.1-    030531 H72 (1.3+  2.4+) 

030526 938  1.0-  0.1+    030528 673  0.3+  0.3-    030531 H72 (3.9-  3.1+) 

030526 938  0.6+  0.0     030528 673  0.7-  0.3+    030531 H41  0.2-  2.3+  

030526 938  0.6-  0.5+    030528 673  0.2-  0.4+    030531 H41  0.3+  1.2-  

030526 938  0.8+  0.3+    030528 673  2.1-  0.2+    030531 H41  0.0   1.3-  

030526 938  1.1-  0.7+    030528 673  0.6-  0.1+    030531 H41  0.6-  0.3-  

030526 938  0.1-  0.3-    030528 673  0.2-  0.2+    030531 H41  0.6+  0.4-  

030526 938  1.9-  0.5+    030528 340  1.6-  1.8+    030531 H41  1.0+  0.0   

030526 938  0.5+  0.2-    030528 340  1.6+  1.3+    030531 A01  1.3+  1.7-  

030526 938  1.5-  0.3+    030528 340  1.2+  1.9+    030531 A01 (7.3-  0.2-) 

030526 938  0.9+  1.6-    030528 340 (3.1+  1.4+)   030601 360  0.3-  0.4+  

030526 938  0.1-  0.2+    030528 340  0.1+  0.5-    030601 360  0.5-  0.0   

030526 938  1.1-  0.6+    030528 340  1.0-  2.0+    030601 367  0.4-  0.3+  

030526 938  1.0-  0.2+    030528 367  0.3+  0.1-    030601 367  0.7-  0.8-  

030526 938  0.5+  0.2+    030528 367  0.6-  0.2-    030601 360  0.6-  0.1-  

030526 938  0.4-  1.1+    030528 367  1.4+  1.1-    030601 900  1.8-  1.8-  

030527 734  0.1-  0.2+    030528 367  0.5-  0.1-    030601 367  0.1-  0.4-  

030527 750  1.3-  0.9-    030528 620  0.3+  0.0     030601 367  0.9-  0.4+  

030527 750 (2.9-  0.5-)   030528 620  0.5+  0.2+    030601 349  1.9-  0.2+  

030527 734  0.7-  0.1-    030528 213  0.3+  0.6+    030601 900  0.7+  0.3-  

030527 750  1.3-  0.7+    030528 620  0.3-  0.2-    030601 349  1.3-  0.0   

030527 333  0.6+  0.6+    030528 213  0.1+  0.7+    030601 349  1.1-  0.8-  

030527 333  0.8-  0.8+    030528 620  0.1-  0.2-    030602 H72  2.0+  1.1-  

030527 333  0.6+  0.2-    030528 166  0.8+  0.3+    030602 H72  0.8-  0.9-  

030527 333  0.5-  0.7+    030528 166  0.4-  0.6+    030602 H72  0.8-  0.4+  

030527 333  0.3+  0.2+    030528 213  0.2-  0.6+    030602 H72  1.2+  0.9+  

030527 333  0.6+  0.5-    030528 166 (2.4-  1.1+)   030602 703  0.7+  1.4+  

030527 926  0.7-  0.5+    030528 A32 (0.4-  2.4+)   030602 703  2.1+  0.5+  

030527 926  0.5-  0.2-    030528 A32  0.7+  0.6-    030602 703  0.7+  0.4+  

030527 926  0.5-  0.0     030529 H41  1.1+  0.2+    030602 703  1.4+  0.2-  

030527 699  2.0+  1.4-    030529 H41  0.3+  0.2-    030602 340  0.5-  1.4+  

030527 673  0.4-  0.6-    030529 H41 (3.5+  7.5-)   030602 340  0.4+  0.1-  

030527 699 (2.3+  0.4-)   030529 750  0.3+  0.7-    030602 340 (0.3-  2.4-) 

030527 673  1.1-  0.5-    030529 900  0.4-  0.6+    030602 340  1.0+  1.0+  

030527 699  1.7+  0.6-    030529 900  0.4-  1.3+    030602 620  0.5-  0.1+  

030527 333  0.9+  0.3-    030529 A46 (2.6+  1.0-)   030602 620  0.5-  0.4+  

030527 333 (3.1+  2.5-)   030529 A46 (1.1+  2.2-)   030602 620  0.1+  0.3-  

030527 673  0.5-  0.6-    030529 A46  0.3+  0.8-    030603 H72  0.4-  0.5-  

030527 333 (2.2+  4.1-)   030529 A46 (1.1+  2.6-)   030603 H72  0.6+  0.2+  

030527 673  0.8-  0.3-    030529 A46  1.3+  1.8-    030603 H41  1.2-  0.4+  

030527 333  1.0+  1.1-    030529 118  0.8+  0.7+    030603 H72 (3.8+  0.6+) 

030527 333  1.0+  0.3-    030529 A46  0.2+  1.2-    030603 H41  0.8+  0.4+  

030527 333  0.7-  1.2-    030529 213  0.0   0.6+    030603 H72 (1.7+  2.5+) 

030527 699  2.3+  1.3-    030529 213  1.2-  0.5+    030603 H41  0.1-  0.6+  

030527 333  0.2+  0.4-    030529 118  0.1+  1.2+    030603 H41  0.4-  0.9+  

030527 333  1.1+  0.2-    030529 213 (2.4-  0.8+)   030603 H41  0.6-  1.0+  

030527 673  0.9-  0.3-    030529 118  0.7+  0.2-    030603 118  0.2+  1.5-  

030527 703  0.4+  2.0-    030529 A32  0.6+  1.1+    030603 118  1.1+  0.5-  

030527 734  1.3+  0.4-    030529 A32  0.1+  1.1-    030603 118  0.7-  0.5-  

030527 854  0.0   0.1-    030530 H72  1.3+  0.4-                            

 

Date/        TT  R.A.(2000) Decl.     Delta   r     Daily motion  Mag.  Moon Age

              h    h  m       。  ,                      ,  / PA 。  m1      。

2003 June  5 12  09 19.66  +25 16.6   1.337  1.217    71.2 / 107  15.0    4  .26

           6 12  09 24.66  +24 55.1   1.351  1.231    70.0 / 108  15.1   13  .35

           7 12  09 29.55  +24 33.4   1.365  1.245    68.9 / 108  15.1   25  .46

           8 12  09 34.33  +24 11.5   1.380  1.259    67.7 / 109  15.2   38  .57

           9 12  09 39.00  +23 49.5   1.395  1.273    66.6 / 109  15.3   50  .68

          10 12  09 43.56  +23 27.3   1.410  1.286    65.4 / 110  15.3   64  .79

          11 12  09 48.03  +23 05.0   1.425  1.300    64.3 / 110  15.4   77  .88

          12 12  09 52.40  +22 42.7   1.441  1.314    63.3 / 110  15.5   91  .94

          13 12  09 56.67  +22 20.4   1.457  1.327    62.2 / 111  15.5  105  .99

          14 12  10 00.85  +21 58.1   1.473  1.341    61.2 / 111  15.6  119 1.00

          15 12  10 04.94  +21 35.7   1.489  1.354    60.2 / 112  15.7  132  .98

          16 12  10 08.94  +21 13.5   1.506  1.368    59.2 / 112  15.7  146  .94

          17 12  10 12.86  +20 51.2   1.522  1.381    58.2 / 112  15.8  159  .88

          18 12  10 16.69  +20 29.1   1.539  1.394    57.3 / 113  15.9  171  .80

          19 12  10 20.45  +20 07.0   1.556  1.408    56.4 / 113  15.9  175  .71

          20 12  10 24.13  +19 45.0   1.574  1.421    55.5 / 113  16.0  164  .61

          21 12  10 27.74  +19 23.1   1.591  1.434    54.6 / 113  16.1  153  .51

          22 12  10 31.28  +19 01.3   1.609  1.447    53.8 / 114  16.1  142  .41

          23 12  10 34.75  +18 39.7   1.627  1.461    53.0 / 114  16.2  131  .32

          24 12  10 38.15  +18 18.2   1.644  1.474    52.2 / 114  16.3  120  .24

          25 12  10 41.49  +17 56.8   1.663  1.487    51.4 / 114  16.3  109  .16

          26 12  10 44.77  +17 35.6   1.681  1.500    50.7 / 114  16.4   98  .10

          27 12  10 47.99  +17 14.5   1.699  1.513    49.9 / 115  16.4   87  .05

          28 12  10 51.15  +16 53.6   1.718  1.526    49.2 / 115  16.5   76  .02

          29 12  10 54.26  +16 32.8   1.736  1.539    48.5 / 115  16.6   64  .00

          30 12  10 57.31  +16 12.2   1.755  1.551    47.8 / 115  16.6   53  .01

     July  1 12  11 00.31  +15 51.8   1.774  1.564    47.2 / 115  16.7   41  .03

           2 12  11 03.27  +15 31.5   1.793  1.577    46.5 / 115  16.7   29  .08

           3 12  11 06.17  +15 11.5   1.812  1.590    45.9 / 116  16.8   17  .14

           4 12  11 09.02  +14 51.5   1.831  1.602    45.3 / 116  16.9    5  .23

           5 12  11 11.84  +14 31.8   1.850  1.615    44.7 / 116  16.9   10  .32

NAKANO

         **** Don't distribute anyone except personal use only ****

                (C) Copyright 2003 OAA/ComputingSection

write mail from CFAD0::NAKANO on 2003-06-07 06:35:42(JST).

 

◎C/2003 K2 (= SWAN comet in April)の軌道と予報位置です



 シェロ−ドによると5月28日の CCD全光度は15.6等とのことです.

  熊本の小林寿朗氏は,この彗星は,4月に報告されたSWAN彗星(4月5日から

19日まで6個の観測がある)と同定できることを指摘しました.氏は,また,2003 K2

から推測される4月の彗星の光度も12等級で,SWAN彗星の光度(11等級)とも,

一致することを指摘している.5月26日から28日の観測から決定した下の軌道は,

その観測(捜索予報から逆算)を1゜〜3゜に表現し,この彗星と4月のSWAN彗

星との小林氏の同定は間違いないものと思われます.



